Status Flugplatz

Der Flugplatz ist offen
PPR Regelung ! PJE !!!

123.15 MHz
RWY 05/23

flüger beizli - Öffnungszeiten
Freitag+Sonntag ab 14:00
Samstag ab 11:00
Bei schönem Wetter öffnen wir früher!

Herzlich willkommen auf der Homepage des Flugplatz Biel-Kappelen

Wir freuen uns über Ihren Besuch auf unserem schönen Flugplatz im Berner Seeland. Ob zu Fuss, per Velo, Motorrad, Auto oder Flugzeug Sie sind uns jederzeit herzlich willkommen.

 

 

 


 

Wetter Kappelen

 


 

[source: ADDS]
METAR
LSZG 280820Z VRB02KT 9999 FEW030 21/14 Q1019 NOSIG =
TAF
TAF LSZG 280825Z 2809/2818 VRB03KT 9999 FEW040 SCT160 PROB40 TEMPO 2813/2816 31010KT =
SR / SS: 04:06 / 19:10 UTC ( 2016-07-28)

 


 

Besucherzähler

HeuteHeute29
Seit BeginnSeit Beginn69304
Guests 6

Flugplatz Biel-Kappelen LSZP - 123.15MHz - 032 384 46 84

Email: Diese E-Mail-Adresse ist vor Spambots geschützt! Zur Anzeige muss JavaScript eingeschaltet sein!
www.lszp.ch
2013 © by mb

Zum Anfang